Time,TemperatureF,DewpointF,PressureIn,WindDirection,WindDirectionDegrees,WindSpeedMPH,WindSpeedGustMPH,Humidity,HourlyPrecipIn,Conditions,Clouds,dailyrainin,SoftwareType,DateUTC
2013-03-20 17:40:00,65.5,35.6,29.89,East,90,6.3,6.3,33,0.00,,,0.00,WUHU216HW,2013-03-20 23:40:00,
2013-03-20 17:45:00,65.3,36.1,29.89,ENE,68,1.1,6.7,34,0.00,,,0.00,WUHU216HW,2013-03-20 23:45:00,
2013-03-20 17:50:00,65.2,35.9,29.89,NNE,23,2.0,6.7,34,0.00,,,0.00,WUHU216HW,2013-03-20 23:50:00,
2013-03-20 17:55:00,65.2,37.4,29.89,ESE,113,1.3,3.1,36,0.00,,,0.00,WUHU216HW,2013-03-20 23:55:00,
2013-03-20 18:00:00,65.2,36.6,29.89,ENE,68,1.8,3.1,35,0.00,,,0.00,WUHU216HW,2013-03-21 00:00:00,
2013-03-20 18:05:00,65.0,35.7,29.89,ESE,113,1.3,3.4,34,0.00,,,0.00,WUHU216HW,2013-03-21 00:05:00,
2013-03-20 18:10:00,64.8,37.1,29.89,East,90,1.1,3.4,36,0.00,,,0.00,WUHU216HW,2013-03-21 00:10:00,
2013-03-20 18:15:00,64.4,37.4,29.89,ESE,113,0.4,1.1,37,0.00,,,0.00,WUHU216HW,2013-03-21 00:15:00,
2013-03-20 18:20:00,63.9,37.0,29.89,ESE,113,0.9,2.2,37,0.00,,,0.00,WUHU216HW,2013-03-21 00:20:00,
2013-03-20 18:25:00,63.5,36.6,29.89,ESE,113,1.6,2.2,37,0.00,,,0.00,WUHU216HW,2013-03-21 00:25:00,
2013-03-20 18:30:00,63.0,36.9,29.88,ENE,68,0.9,1.8,38,0.00,,,0.00,WUHU216HW,2013-03-21 00:30:00,
2013-03-20 18:35:00,62.6,37.3,29.88,East,90,1.8,1.8,39,0.00,,,0.00,WUHU216HW,2013-03-21 00:35:00,
2013-03-20 18:40:00,61.9,36.6,29.88,ENE,68,1.1,1.8,39,0.00,,,0.00,WUHU216HW,2013-03-21 00:40:00,
2013-03-20 18:45:00,61.4,36.8,29.88,ENE,68,1.1,1.3,40,0.00,,,0.00,WUHU216HW,2013-03-21 00:45:00,
2013-03-20 18:50:00,60.7,36.2,29.88,ENE,68,0.4,1.3,40,0.00,,,0.00,WUHU216HW,2013-03-21 00:50:00,
2013-03-20 18:55:00,59.9,36.1,29.88,ENE,68,0.0,0.7,41,0.00,,,0.00,WUHU216HW,2013-03-21 00:55:00,
2013-03-20 19:00:00,59.2,36.6,29.88,ENE,68,0.0,0.0,43,0.00,,,0.00,WUHU216HW,2013-03-21 01:00:00,
2013-03-20 19:05:00,58.3,37.0,29.88,ENE,68,0.0,0.0,45,0.00,,,0.00,WUHU216HW,2013-03-21 01:05:00,
2013-03-20 19:10:00,57.4,37.4,29.88,ENE,68,0.0,0.0,47,0.00,,,0.00,WUHU216HW,2013-03-21 01:10:00,
2013-03-20 19:15:00,56.7,37.2,29.88,ENE,68,0.0,0.0,48,0.00,,,0.00,WUHU216HW,2013-03-21 01:15:00,
2013-03-20 19:20:00,56.0,37.1,29.88,ENE,68,0.0,0.0,49,0.00,,,0.00,WUHU216HW,2013-03-21 01:20:00,
2013-03-20 19:25:00,55.3,36.9,29.88,ENE,68,0.0,0.0,50,0.00,,,0.00,WUHU216HW,2013-03-21 01:25:00,
2013-03-20 19:30:00,54.9,37.5,29.88,ENE,68,0.0,1.1,52,0.00,,,0.00,WUHU216HW,2013-03-21 01:30:00,
2013-03-20 19:35:00,54.4,37.5,29.88,ENE,68,1.3,1.3,53,0.00,,,0.00,WUHU216HW,2013-03-21 01:35:00,
2013-03-20 19:40:00,54.0,38.6,29.88,WSW,248,0.4,2.2,56,0.00,,,0.00,WUHU216HW,2013-03-21 01:40:00,
2013-03-20 19:45:00,53.6,38.3,29.88,WSW,248,0.0,2.2,56,0.00,,,0.00,WUHU216HW,2013-03-21 01:45:00,
2013-03-20 19:50:00,53.3,37.9,29.87,WSW,248,0.0,0.2,56,0.00,,,0.00,WUHU216HW,2013-03-21 01:50:00,
2013-03-20 19:55:00,52.9,38.1,29.87,WSW,248,0.0,0.0,57,0.00,,,0.00,WUHU216HW,2013-03-21 01:55:00,
2013-03-20 20:00:00,52.9,38.5,29.87,WSW,248,1.1,1.1,58,0.00,,,0.00,WUHU216HW,2013-03-21 02:00:00,
2013-03-20 20:05:00,52.6,38.6,29.87,WSW,248,1.3,1.3,59,0.00,,,0.00,WUHU216HW,2013-03-21 02:05:00,
2013-03-20 20:10:00,52.4,39.3,29.87,WSW,248,0.0,1.6,61,0.00,,,0.00,WUHU216HW,2013-03-21 02:10:00,
2013-03-20 20:15:00,52.2,39.2,29.87,WSW,248,0.7,1.6,61,0.00,,,0.00,WUHU216HW,2013-03-21 02:15:00,
2013-03-20 20:20:00,51.8,39.2,29.87,WSW,248,0.0,1.1,62,0.00,,,0.00,WUHU216HW,2013-03-21 02:20:00,
2013-03-20 20:25:00,51.7,39.4,29.87,WSW,248,1.3,1.6,63,0.00,,,0.00,WUHU216HW,2013-03-21 02:25:00,
2013-03-20 20:30:00,51.5,39.2,29.87,WSW,248,1.8,1.8,63,0.00,,,0.00,WUHU216HW,2013-03-21 02:30:00,
2013-03-20 20:35:00,51.5,39.7,29.87,WSW,248,1.1,1.8,64,0.00,,,0.00,WUHU216HW,2013-03-21 02:35:00,
2013-03-20 20:40:00,51.1,39.7,29.87,WSW,248,0.0,1.8,65,0.00,,,0.00,WUHU216HW,2013-03-21 02:40:00,
2013-03-20 20:45:00,50.9,39.5,29.87,WSW,248,1.1,1.8,65,0.00,,,0.00,WUHU216HW,2013-03-21 02:45:00,
2013-03-20 20:50:00,50.8,39.4,29.87,WSW,248,1.1,1.8,65,0.00,,,0.00,WUHU216HW,2013-03-21 02:50:00,
2013-03-20 20:55:00,50.8,39.8,29.87,WSW,248,1.1,1.8,66,0.00,,,0.00,WUHU216HW,2013-03-21 02:55:00,
2013-03-20 21:00:00,50.6,39.6,29.87,WSW,248,0.0,1.1,66,0.00,,,0.00,WUHU216HW,2013-03-21 03:00:00,
2013-03-20 21:05:00,50.4,39.4,29.86,WSW,248,0.0,1.1,66,0.00,,,0.00,WUHU216HW,2013-03-21 03:05:00,
2013-03-20 21:10:00,50.0,39.1,29.86,WSW,248,1.1,1.1,66,0.00,,,0.00,WUHU216HW,2013-03-21 03:10:00,
2013-03-20 21:15:00,49.9,39.3,29.86,WSW,248,1.3,1.8,67,0.00,,,0.00,WUHU216HW,2013-03-21 03:15:00,
2013-03-20 21:20:00,49.7,39.2,29.87,WSW,248,0.0,1.8,67,0.00,,,0.00,WUHU216HW,2013-03-21 03:20:00,
2013-03-20 21:25:00,49.3,38.8,29.86,WSW,248,0.0,1.1,67,0.00,,,0.00,WUHU216HW,2013-03-21 03:25:00,
2013-03-20 21:30:00,49.1,39.0,29.86,WSW,248,0.0,1.3,68,0.00,,,0.00,WUHU216HW,2013-03-21 03:30:00,
2013-03-20 21:35:00,49.0,39.3,29.86,WSW,248,0.0,1.3,69,0.00,,,0.00,WUHU216HW,2013-03-21 03:35:00,
2013-03-20 21:40:00,48.6,38.9,29.86,WSW,248,0.4,0.4,69,0.00,,,0.00,WUHU216HW,2013-03-21 03:40:00,
2013-03-20 21:45:00,48.4,39.1,29.86,WSW,248,1.3,1.3,70,0.00,,,0.00,WUHU216HW,2013-03-21 03:45:00,
2013-03-20 21:50:00,48.2,38.9,29.86,WSW,248,0.9,1.3,70,0.00,,,0.00,WUHU216HW,2013-03-21 03:50:00,
2013-03-20 21:55:00,48.1,39.1,29.86,WSW,248,0.0,1.8,71,0.00,,,0.00,WUHU216HW,2013-03-21 03:55:00,
2013-03-20 22:00:00,47.9,38.9,29.86,WSW,248,1.8,2.2,71,0.00,,,0.00,WUHU216HW,2013-03-21 04:00:00,
2013-03-20 22:05:00,47.7,39.1,29.86,West,270,0.0,2.2,72,0.00,,,0.00,WUHU216HW,2013-03-21 04:05:00,
2013-03-20 22:10:00,47.5,38.9,29.86,West,270,0.9,1.3,72,0.00,,,0.00,WUHU216HW,2013-03-21 04:10:00,
2013-03-20 22:15:00,47.5,38.9,29.86,WSW,248,2.0,2.0,72,0.00,,,0.00,WUHU216HW,2013-03-21 04:15:00,
2013-03-20 22:20:00,47.5,39.2,29.85,WSW,248,3.1,3.1,73,0.00,,,0.00,WUHU216HW,2013-03-21 04:20:00,
2013-03-20 22:25:00,47.5,39.2,29.85,SW,225,0.0,3.1,73,0.00,,,0.00,WUHU216HW,2013-03-21 04:25:00,
2013-03-20 22:30:00,47.3,39.1,29.85,WSW,248,1.3,2.0,73,0.00,,,0.00,WUHU216HW,2013-03-21 04:30:00,
2013-03-20 22:35:00,47.3,39.1,29.85,WSW,248,0.0,2.0,73,0.00,,,0.00,WUHU216HW,2013-03-21 04:35:00,
2013-03-20 22:40:00,47.2,39.2,29.85,WSW,248,0.4,1.3,74,0.00,,,0.00,WUHU216HW,2013-03-21 04:40:00,
2013-03-20 22:45:00,47.2,39.2,29.84,WSW,248,1.3,1.3,74,0.00,,,0.00,WUHU216HW,2013-03-21 04:45:00,
2013-03-20 22:50:00,47.2,39.6,29.84,West,270,0.0,2.5,75,0.00,,,0.00,WUHU216HW,2013-03-21 04:50:00,
2013-03-20 22:55:00,47.0,39.2,29.83,West,270,0.0,2.5,74,0.00,,,0.00,WUHU216HW,2013-03-21 04:55:00,
2013-03-20 23:00:00,46.8,39.3,29.83,West,270,0.0,1.1,75,0.00,,,0.00,WUHU216HW,2013-03-21 05:00:00,
2013-03-20 23:05:00,46.6,39.2,29.84,West,270,0.0,1.1,75,0.00,,,0.00,WUHU216HW,2013-03-21 05:05:00,
2013-03-20 23:10:00,46.6,39.2,29.83,West,270,0.4,1.1,75,0.00,,,0.00,WUHU216HW,2013-03-21 05:10:00,
2013-03-20 23:15:00,46.6,39.2,29.83,West,270,0.9,1.6,75,0.00,,,0.00,WUHU216HW,2013-03-21 05:15:00,
2013-03-20 23:20:00,46.4,39.0,29.83,West,270,0.2,1.6,75,0.00,,,0.00,WUHU216HW,2013-03-21 05:20:00,
2013-03-20 23:25:00,46.4,39.3,29.82,West,270,0.0,0.9,76,0.00,,,0.00,WUHU216HW,2013-03-21 05:25:00,
2013-03-20 23:30:00,46.4,39.3,29.82,West,270,0.4,0.7,76,0.00,,,0.00,WUHU216HW,2013-03-21 05:30:00,
2013-03-20 23:35:00,46.4,39.3,29.83,West,270,0.0,1.6,76,0.00,,,0.00,WUHU216HW,2013-03-21 05:35:00,
2013-03-20 23:40:00,46.3,39.2,29.82,West,270,0.4,1.6,76,0.00,,,0.00,WUHU216HW,2013-03-21 05:40:00,
2013-03-20 23:45:00,46.3,39.5,29.83,West,270,1.3,1.8,77,0.00,,,0.00,WUHU216HW,2013-03-21 05:45:00,
2013-03-20 23:50:00,46.1,39.3,29.82,West,270,0.0,1.8,77,0.00,,,0.00,WUHU216HW,2013-03-21 05:50:00,
2013-03-20 23:55:00,45.9,39.2,29.82,West,270,0.0,1.1,77,0.00,,,0.00,WUHU216HW,2013-03-21 05:55:00,